Pecos, TX

2:22 AM CST on January 24, 2017 (GMT -0600)
Pecos Municipal

Weather History for KPEQ - July, 2013

Change the Weather History Date:

Tuesday, July 23, 2013

  Actual Average Record
Temperature  
Mean Temperature 82 °F -  
Max Temperature 97 °F 97 °F 107 °F (1981)
Min Temperature 70 °F 68 °F 61 °F (1988)
Cooling Degree Days 16    
Growing Degree Days 32 (Base 50)    
Moisture  
Dew Point 66 °F    
Average Humidity 72    
Maximum Humidity 89    
Minimum Humidity 33    
Precipitation  
Precipitation 0.00 in - - ()
Sea Level Pressure  
Sea Level Pressure 29.96 in    
Wind  
Wind Speed 4 mph (SE)    
Max Wind Speed 13 mph    
Max Gust Speed -    
Visibility 10 miles    
Events      
Averages and records for this station are not official NWS values.
T = Trace of Precipitation, MM = Missing Value Source: NWS Daily Summary

Daily Weather History Graph

Daily Weather History Graph

Search for Another Location

Airport or City:

Trip Planner

Search our weather history database for the weather conditions in past years. The results will help you decide how hot, cold, wet, or windy it might be!

Date:

Astronomy

Jul. 23, 2013 Rise Set
Actual Time 7:05 AM CDT 8:55 PM CDT
Civil Twilight 6:38 AM CDT 9:22 PM CDT
Nautical Twilight 6:05 AM CDT 9:55 PM CDT
Astronomical Twilight 5:31 AM CDT 10:29 PM CDT
Moon 9:36 PM CDT (7/23) 8:08 AM CDT (7/23)
Length of Visible Light 14h 44m
Length of Day
13h 50m
Full, 99% of the Moon is Illuminated
Jul 23
Full
Jul 29
Last Quarter
Aug 6
New
Aug 14
First Quarter
Aug 20
Full

Hourly Weather History & Observations

Time (CDT) Temp. Heat Index Dew Point Humidity Pressure Visibility Wind Dir Wind Speed Gust Speed Precip Events Conditions
12:55 AM 76.3 °F - 67.1 °F 73% 29.97 in 10.0 mi ESE 9.2 mph - N/A   Clear
1:35 AM 75.6 °F - 67.1 °F 75% 29.97 in 10.0 mi ESE 4.6 mph - N/A   Clear
1:55 AM 75.2 °F - 67.3 °F 76% 29.97 in 10.0 mi Calm Calm - N/A   Clear
2:15 AM 74.7 °F - 67.5 °F 78% 29.97 in 10.0 mi Calm Calm - N/A   Clear
2:35 AM 75.0 °F - 67.3 °F 77% 29.96 in 10.0 mi Calm Calm - N/A   Clear
2:55 AM 74.3 °F - 67.1 °F 78% 29.96 in 10.0 mi Calm Calm - N/A   Clear
3:15 AM 73.8 °F - 67.1 °F 80% 29.96 in 10.0 mi SSE 4.6 mph - N/A   Clear
3:35 AM 73.4 °F - 67.3 °F 81% 29.96 in 10.0 mi Calm Calm - N/A   Clear
3:55 AM 72.9 °F - 67.1 °F 82% 29.96 in 10.0 mi SE 3.5 mph - N/A   Clear
4:15 AM 72.9 °F - 67.1 °F 82% 29.96 in 10.0 mi Calm Calm - N/A   Clear
4:35 AM 73.0 °F - 67.1 °F 82% 29.96 in 10.0 mi Calm Calm - N/A   Clear
4:55 AM 71.8 °F - 67.1 °F 85% 29.96 in 10.0 mi East 4.6 mph - N/A   Clear
5:15 AM 71.1 °F - 66.7 °F 86% 29.97 in 10.0 mi Calm Calm - N/A   Clear
5:35 AM 70.7 °F - 66.6 °F 87% 29.97 in 10.0 mi ESE 3.5 mph - N/A   Clear
5:55 AM 70.3 °F - 66.4 °F 87% 29.97 in 10.0 mi Calm Calm - N/A   Clear
6:15 AM 70.0 °F - 66.2 °F 88% 29.97 in 10.0 mi Calm Calm - N/A   Clear
6:55 AM 70.0 °F - 66.6 °F 89% 29.98 in 10.0 mi Calm Calm - N/A   Clear
7:55 AM 72.7 °F - 67.3 °F 83% 29.97 in 10.0 mi Calm Calm - N/A   Clear
10:55 AM 83.8 °F 86.0 °F 65.8 °F 55% 29.98 in 10.0 mi WSW 3.5 mph - N/A   Clear
12:15 PM 88.0 °F 89.0 °F 63.3 °F 44% 29.98 in 10.0 mi SE 3.5 mph - N/A   Clear
12:55 PM 89.1 °F 89.3 °F 61.9 °F 40% 29.98 in 10.0 mi WSW 5.8 mph - N/A   Clear
6:55 PM 93.7 °F 93.7 °F 60.6 °F 33% 29.88 in 10.0 mi South 10.4 mph - N/A   Clear
9:35 PM 84.4 °F 86.6 °F 65.8 °F 54% 29.89 in 10.0 mi East 11.5 mph - N/A   Clear
10:55 PM 83.5 °F 85.7 °F 66.2 °F 56% 29.93 in 10.0 mi SE 8.1 mph - N/A   Clear
11:15 PM 83.3 °F 85.3 °F 65.8 °F 55% 29.93 in 10.0 mi SE 12.7 mph - N/A   Clear